Tracking 18844 objects as of 21-Nov-2017
HD Live streaming from Space Station
objects crossing your sky now

OPTUS D1

Track OPTUS D1 now!
OPTUS D1 is classified as:


NORAD ID: 29495
Int'l Code: 2006-043B
Perigee: 35,779.7 km
Apogee: 35,807.6 km
Inclination: 0.0 °
Period: 1,436.1 minutes
Semi major axis: 42164 km
RCS: 0.003 m2 (small)
Launch date: October 13, 2006
Source: Australia (AUS)
Launch site: FRENCH GUIANA (FRGUI)

OPTUS D1 will provide fixed communications and satellite broadcast services over Australia and New Zealand
aabbcc
Your satellite tracking list
Your tracking list is empty




NASA's NSSDC Master Catalog

Two Line Element Set (TLE):
1 29495U 06043B   17325.49424139 -.00000106  00000-0  00000+0 0  9993
2 29495   0.0347  99.3724 0003307 138.8166 160.4552  1.00272014 40762
Source of the keplerian elements: AFSPC